Torna al catalogo

ONEWEB-0165

AttivoComunicazioniPO
NORAD 48233·PAYLOAD·🇬🇧 United Kingdom

Lanciato Apr 25, 2021 da Vostochny Cosmodrome

Loading…

Prossimi Passaggi (prossime 24 ore)

TLE

AggiornatoSource: CelesTrak SupGP

Epoca: Sep 14, 2026, 21:01 UTC

1 48233C 21031Z   26257.87584907  .00002925  00000+0  78979-2 0  2573
2 48233  87.8904 271.8255 0001637  83.7634 311.9894 13.14501078    12

Traccia ONEWEB-0165 in tempo reale con AllMySat

Download on the App Store